This is the latest recevied weather packets stored in our database for station/object KK4KTV-13. If no packets are shown the sender has not sent any weather packets the latest 10 day(s).
| Time | Temp. | Humidity | Pressure | Rain* | Wind** | Luminosity | Snow |
|---|---|---|---|---|---|---|---|
| 1777251349 | 18.89° C | 66% | 1014 hPa | 0 mm | - | 0 W/m² | - |
| 1777251039 | 18.89° C | 66% | 1013.9 hPa | 0 mm | - | 0 W/m² | - |
| 1777250736 | 19.44° C | 65% | 1013.7 hPa | 0 mm | - | 0 W/m² | - |
| 1777250432 | 19.44° C | 64% | 1013.6 hPa | 0 mm | - | 0 W/m² | - |
| 1777250127 | 20° C | 63% | 1013.6 hPa | 0 mm | - | 1 W/m² | - |
| 1777249824 | 20° C | 62% | 1013.5 hPa | 0 mm | - | 1 W/m² | - |
| 1777249520 | 20° C | 61% | 1013.6 hPa | 0 mm | - | 3 W/m² | - |
| 1777249217 | 20.56° C | 61% | 1013.5 hPa | 0 mm | - | 4 W/m² | - |
| 1777248915 | 20.56° C | 59% | 1013.3 hPa | 0 mm | - | 7 W/m² | - |
| 1777248610 | 21.11° C | 58% | 1013.4 hPa | 0 mm | - | 12 W/m² | - |
| 1777248306 | 21.67° C | 57% | 1013.4 hPa | 0 mm | - | 16 W/m² | - |
| 1777248002 | 21.67° C | 56% | 1013.3 hPa | 0 mm | - | 21 W/m² | - |
| 1777247696 | 22.22° C | 55% | 1013.3 hPa | 0 mm | - | 25 W/m² | - |
| 1777247394 | 22.22° C | 55% | 1013.4 hPa | 0 mm | - | 29 W/m² | - |
| 1777247092 | 22.22° C | 54% | 1013.3 hPa | 0 mm | - | 33 W/m² | - |
| 1777246788 | 22.78° C | 53% | 1013.4 hPa | 0 mm | - | 39 W/m² | - |
| 1777246484 | 22.78° C | 52% | 1013.4 hPa | 0 mm | - | 44 W/m² | - |
| 1777246181 | 22.78° C | 52% | 1013.3 hPa | 0 mm | - | 48 W/m² | - |
| 1777245879 | 22.78° C | 51% | 1013.2 hPa | 0 mm | - | 54 W/m² | - |
| 1777245577 | 22.78° C | 51% | 1013.2 hPa | 0 mm | - | 61 W/m² | - |
| 1777245273 | 23.33° C | 51% | 1013.4 hPa | 0 mm | - | 71 W/m² | - |
| 1777244969 | 23.33° C | 51% | 1013.4 hPa | 0 mm | - | 75 W/m² | - |
| 1777244665 | 23.33° C | 50% | 1013.5 hPa | 0 mm | - | 85 W/m² | - |
| 1777244360 | 23.33° C | 49% | 1013.3 hPa | 0 mm | - | 98 W/m² | - |
| 1777244058 | 23.89° C | 49% | 1013.5 hPa | 0 mm | - | 111 W/m² | - |
* Rain latest hour (hover to see other rain measurements)
** Current wind speed in m/s (hover to see current wind gust speed)